Location: Pl�tzky
(52.0521°N, 11.8020°E)
Time: 20:57:45
(UTC+00:00)

H-2A R/B - Pass Details

Date: 22 November 2019
Orbit: 733 x 837 km, 98.3° (Epoch: 07 December)

Event Time Altitude Azimuth Distance (km) Brightness Sun altitude
Exits shadow 18:52:37 19° 348° (NNW) 1,820 4.1 -33.2°
Drops below altitude 10° 18:54:04 10° 347° (NNW) 2,383 4.8 -33.4°
Sets 18:56:23 0° 347° (NNW) 3,301 5.6 -33.7°
